Weather History for West Palm Beach, FL

Change the Weather History Date:

Monday, January 14, 2013

  Actual Average Record
Temperature  
Mean Temperature 73 °F 65 °F  
Max Temperature 80 °F 74 °F 86 °F (1912)
Min Temperature 65 °F 57 °F 31 °F (1922)
Degree Days  
Heating Degree Days 0 3  
Month to date heating degree days 0 42  
Since 1 July heating degree days 43 113  
Cooling Degree Days 8 3  
Month to date cooling degree days 133 49  
Year to date cooling degree days 133 49  
Growing Degree Days 23 (Base 50)    
Moisture  
Dew Point 63 °F    
Average Humidity 70    
Maximum Humidity 81    
Minimum Humidity 58    
Precipitation  
Precipitation T in 0.10 in 3.28 in (1974)
Month to date precipitation 0.43 1.52  
Year to date precipitation 0.43 1.52  
Snow  
Snow 0.00 in - - ()
Month to date snowfall 0.0  
Since 1 July snowfall 0.0  
Snow Depth 0.00 in    
Sea Level Pressure  
Sea Level Pressure 30.15 in    
Wind  
Wind Speed 9 mph (SE)    
Max Wind Speed 18 mph    
Max Gust Speed 24 mph    
Visibility 10 miles    
Events Rain    
T = Trace of Precipitation, MM = Missing Value Source: NWS Daily Summary

Daily Weather History Graph

Daily Weather History Graph

Search for Another Location

Airport:

Trip Planner

Search our weather history database for the weather conditions in past years. The results will help you decide how hot, cold, wet, or windy it might be!

Date:

Astronomy

Jan. 14, 2013 Rise Set
Actual Time 7:10 AM EST 5:48 PM EST
Civil Twilight 6:45 AM EST 6:13 PM EST
Nautical Twilight 6:17 AM EST 6:42 PM EST
Astronomical Twilight 5:49 AM EST 7:10 PM EST
Moon 9:04 AM EST (1/14) 9:07 PM EST (1/14)
Length of Visible Light 11h 28m
Length of Day
10h 38m
Waxing Crescent, 11% of the Moon is Illuminated
Jan 14
Waxing Crescent
Jan 18
First Quarter
Jan 26
Full
Feb 3
Last Quarter
Feb 10
New

Hourly Weather History & Observations

Time (EST) Temp. Dew Point Humidity Pressure Visibility Wind Dir Wind Speed Gust Speed Precip Events Conditions
12:53 AM 73.9 °F 63.0 °F 68% 30.14 in 10.0 mi ESE 9.2 mph - N/A   Scattered Clouds
1:53 AM 75.0 °F 64.0 °F 69% 30.14 in 10.0 mi ESE 10.4 mph - N/A   Mostly Cloudy
2:53 AM 73.9 °F 63.0 °F 68% 30.14 in 10.0 mi SE 9.2 mph - N/A   Scattered Clouds
3:53 AM 72.0 °F 61.0 °F 68% 30.12 in 10.0 mi SSE 5.8 mph - N/A   Scattered Clouds
4:53 AM 72.0 °F 61.0 °F 68% 30.13 in 10.0 mi SSE 3.5 mph - N/A   Mostly Cloudy
5:53 AM 72.0 °F 62.1 °F 71% 30.14 in 10.0 mi South 3.5 mph - N/A   Mostly Cloudy
6:53 AM 66.9 °F 61.0 °F 81% 30.15 in 10.0 mi Calm Calm - N/A   Mostly Cloudy
7:53 AM 71.1 °F 63.0 °F 75% 30.15 in 10.0 mi SSE 5.8 mph - N/A   Mostly Cloudy
8:53 AM 75.9 °F 63.0 °F 64% 30.16 in 10.0 mi SE 13.8 mph - N/A   Mostly Cloudy
9:53 AM 77.0 °F 64.0 °F 64% 30.17 in 10.0 mi SE 15.0 mph 18.4 mph N/A   Mostly Cloudy
10:53 AM 77.0 °F 63.0 °F 62% 30.17 in 10.0 mi SE 13.8 mph - N/A   Mostly Cloudy
11:53 AM 78.1 °F 63.0 °F 60% 30.15 in 10.0 mi SE 12.7 mph - N/A   Mostly Cloudy
12:53 PM 79.0 °F 64.0 °F 60% 30.14 in 10.0 mi SE 10.4 mph - N/A   Mostly Cloudy
1:53 PM 79.0 °F 63.0 °F 58% 30.13 in 10.0 mi SE 8.1 mph - N/A   Mostly Cloudy
2:53 PM 79.0 °F 63.0 °F 58% 30.13 in 10.0 mi SSE 13.8 mph 21.9 mph N/A   Mostly Cloudy
3:53 PM 78.1 °F 63.0 °F 60% 30.14 in 10.0 mi SSE 6.9 mph - N/A   Scattered Clouds
4:53 PM 77.0 °F 63.0 °F 62% 30.15 in 10.0 mi SSE 5.8 mph - N/A   Scattered Clouds
5:53 PM 75.9 °F 64.0 °F 67% 30.16 in 10.0 mi SE 8.1 mph - N/A   Mostly Cloudy
6:53 PM 73.9 °F 64.9 °F 73% 30.17 in 10.0 mi SE 4.6 mph - N/A   Scattered Clouds
7:53 PM 73.9 °F 64.9 °F 73% 30.17 in 10.0 mi East 3.5 mph - N/A   Scattered Clouds
8:53 PM 75.0 °F 64.0 °F 69% 30.16 in 10.0 mi ESE 9.2 mph - N/A   Scattered Clouds
9:53 PM 75.0 °F 66.0 °F 73% 30.16 in 10.0 mi ESE 10.4 mph - N/A   Scattered Clouds
10:53 PM 75.0 °F 66.0 °F 73% 30.15 in 10.0 mi East 10.4 mph - N/A   Scattered Clouds
11:19 PM 75.2 °F 66.2 °F 73% 30.15 in 10.0 mi East 12.7 mph - 0.00 in Rain Light Rain
11:53 PM 75.0 °F 64.9 °F 71% 30.14 in 10.0 mi ESE 16.1 mph - 0.00 in   Mostly Cloudy